TimeCST,TemperatureF,Dew PointF,Humidity,Sea Level PressureIn,VisibilityMPH,Wind Direction,Wind SpeedMPH,Gust SpeedMPH,PrecipitationIn,Events,Conditions,WindDirDegrees,DateUTC
12:08 AM,48.2,48.2,100,30.01,8.0,Calm,Calm,-,N/A,,Overcast,0,2013-02-06 06:08:00
12:10 AM,48.2,48.2,100,30.01,9.0,Calm,Calm,-,N/A,,Overcast,0,2013-02-06 06:10:00
12:39 AM,48.2,48.2,100,30.01,10.0,Calm,Calm,-,N/A,,Overcast,0,2013-02-06 06:39:00
12:42 AM,48.2,48.2,100,30.01,10.0,Calm,Calm,-,N/A,,Overcast,0,2013-02-06 06:42:00
12:55 AM,49.1,49.1,100,30.01,10.0,Calm,Calm,-,N/A,,Overcast,0,2013-02-06 06:55:00
12:59 AM,50.0,50.0,100,30.01,10.0,ENE,3.5,-,N/A,,Overcast,70,2013-02-06 06:59:00
1:10 AM,50.0,50.0,100,30.00,10.0,ENE,3.5,-,N/A,,Overcast,60,2013-02-06 07:10:00
1:25 AM,51.8,51.8,100,29.99,8.0,ENE,4.6,-,N/A,,Overcast,70,2013-02-06 07:25:00
1:50 AM,50.0,50.0,100,29.99,9.0,Calm,Calm,-,N/A,,Overcast,0,2013-02-06 07:50:00
1:55 AM,50.2,50.2,100,29.99,8.0,Calm,Calm,-,N/A,,Overcast,0,2013-02-06 07:55:00
2:00 AM,50.0,50.0,100,29.99,8.0,Calm,Calm,-,N/A,,Overcast,0,2013-02-06 08:00:00
2:02 AM,50.0,50.0,100,29.99,9.0,Calm,Calm,-,N/A,,Overcast,0,2013-02-06 08:02:00
2:05 AM,50.0,50.0,100,29.99,9.0,Calm,Calm,-,N/A,,Overcast,0,2013-02-06 08:05:00
2:31 AM,51.8,51.8,100,29.98,2.5,Calm,Calm,-,N/A,,Overcast,0,2013-02-06 08:31:00
2:42 AM,51.8,51.8,100,29.98,1.8,Calm,Calm,-,N/A,,Overcast,0,2013-02-06 08:42:00
2:44 AM,51.8,51.8,100,29.98,1.5,Calm,Calm,-,N/A,,Overcast,0,2013-02-06 08:44:00
2:47 AM,51.8,51.8,100,29.98,1.2,Calm,Calm,-,N/A,,Overcast,0,2013-02-06 08:47:00
2:52 AM,51.8,51.8,100,29.98,1.0,Calm,Calm,-,N/A,,Mist,0,2013-02-06 08:52:00
2:55 AM,51.1,51.1,100,29.97,1.0,Calm,Calm,-,N/A,,Mist,0,2013-02-06 08:55:00
3:01 AM,51.8,51.8,100,29.97,0.8,Calm,Calm,-,N/A,,Mist,0,2013-02-06 09:01:00
3:33 AM,51.8,51.8,100,29.97,0.5,Calm,Calm,-,N/A,Fog,Fog,0,2013-02-06 09:33:00
3:43 AM,51.8,51.8,100,29.97,0.8,South,3.5,-,N/A,,Mist,170,2013-02-06 09:43:00
3:55 AM,53.2,53.2,100,29.97,0.8,SSE,5.8,-,N/A,,Mist,160,2013-02-06 09:55:00
4:01 AM,53.6,53.6,100,29.97,0.8,SSE,5.8,-,N/A,,Mist,150,2013-02-06 10:01:00
4:07 AM,53.6,53.6,100,29.97,0.5,SSE,4.6,-,N/A,Fog,Fog,150,2013-02-06 10:07:00
4:14 AM,53.6,53.6,100,29.97,0.8,SSE,5.8,-,N/A,,Mist,150,2013-02-06 10:14:00
4:21 AM,53.6,53.6,100,29.97,1.0,South,6.9,-,N/A,,Mist,170,2013-02-06 10:21:00
4:30 AM,53.6,53.6,100,29.97,1.0,SSE,4.6,-,N/A,,Mist,150,2013-02-06 10:30:00
4:33 AM,53.6,53.6,100,29.98,1.0,SSE,5.8,-,N/A,,Mist,160,2013-02-06 10:33:00
4:34 AM,53.6,53.6,100,29.98,0.8,SSE,5.8,-,N/A,,Mist,160,2013-02-06 10:34:00
4:39 AM,53.6,53.6,100,29.98,0.5,SSE,5.8,-,N/A,Fog,Fog,160,2013-02-06 10:39:00
4:55 AM,53.8,53.8,100,29.98,0.5,SSE,6.9,-,N/A,Fog,Fog,150,2013-02-06 10:55:00
5:50 AM,53.6,53.6,100,29.98,0.2,SSE,4.6,-,N/A,Fog,Fog,160,2013-02-06 11:50:00
5:55 AM,53.8,53.8,100,29.97,0.2,SE,3.5,-,N/A,Fog,Fog,140,2013-02-06 11:55:00
6:55 AM,53.6,53.6,100,29.97,0.2,SE,3.5,-,N/A,Fog,Fog,130,2013-02-06 12:55:00
7:01 AM,53.6,53.6,100,29.97,0.5,ESE,4.6,-,N/A,Fog,Fog,120,2013-02-06 13:01:00
7:36 AM,53.6,53.6,100,29.98,0.2,SE,6.9,-,N/A,Fog,Fog,130,2013-02-06 13:36:00
7:40 AM,53.6,53.6,100,29.98,0.2,SE,5.8,-,N/A,Fog,Fog,140,2013-02-06 13:40:00
7:47 AM,53.6,53.6,100,29.98,0.5,SSE,5.8,-,N/A,Fog,Fog,150,2013-02-06 13:47:00
7:55 AM,53.8,53.8,100,29.98,0.5,SSE,6.9,-,N/A,Fog,Fog,150,2013-02-06 13:55:00
8:03 AM,53.6,53.6,100,29.98,0.8,SSE,5.8,-,N/A,,Mist,150,2013-02-06 14:03:00
8:20 AM,53.6,53.6,100,29.98,0.5,SE,4.6,-,N/A,Fog,Fog,130,2013-02-06 14:20:00
8:55 AM,54.5,54.5,100,29.98,0.5,SE,6.9,-,N/A,Fog,Fog,130,2013-02-06 14:55:00
8:57 AM,53.6,53.6,100,29.98,0.8,SE,6.9,-,N/A,,Mist,130,2013-02-06 14:57:00
9:10 AM,55.4,55.4,100,29.98,0.5,SE,8.1,-,N/A,Fog,Fog,130,2013-02-06 15:10:00
9:17 AM,55.4,55.4,100,29.98,0.8,SE,8.1,-,N/A,,Mist,130,2013-02-06 15:17:00
9:28 AM,55.4,55.4,100,29.98,1.0,SE,6.9,-,N/A,,Mist,140,2013-02-06 15:28:00
9:36 AM,55.4,55.4,100,29.97,0.8,SE,9.2,-,N/A,,Mist,130,2013-02-06 15:36:00
9:40 AM,55.4,55.4,100,29.98,1.0,SE,6.9,-,N/A,,Mist,140,2013-02-06 15:40:00
9:51 AM,55.4,55.4,100,29.98,1.2,SSE,6.9,-,N/A,,Overcast,150,2013-02-06 15:51:00
9:55 AM,54.9,54.9,100,29.98,1.2,SE,6.9,-,N/A,,Overcast,140,2013-02-06 15:55:00
10:08 AM,55.4,55.4,100,29.98,1.5,SE,6.9,-,N/A,,Overcast,130,2013-02-06 16:08:00
10:12 AM,55.4,55.4,100,29.98,1.8,SE,5.8,-,N/A,,Overcast,140,2013-02-06 16:12:00
10:17 AM,55.4,55.4,100,29.98,2.0,SE,5.8,-,N/A,,Overcast,130,2013-02-06 16:17:00
10:26 AM,55.4,55.4,100,29.98,3.0,SE,6.9,-,N/A,,Overcast,140,2013-02-06 16:26:00
10:45 AM,55.4,55.4,100,29.98,2.5,SE,8.1,-,N/A,,Overcast,140,2013-02-06 16:45:00
10:50 AM,55.4,55.4,100,29.97,1.8,SE,9.2,-,N/A,,Overcast,140,2013-02-06 16:50:00
10:53 AM,55.4,55.4,100,29.97,1.5,SE,8.1,-,N/A,,Overcast,140,2013-02-06 16:53:00
10:55 AM,55.9,55.9,100,29.97,1.5,SE,9.2,-,N/A,,Overcast,140,2013-02-06 16:55:00
11:00 AM,55.4,55.4,100,29.97,1.2,SE,6.9,-,N/A,,Overcast,140,2013-02-06 17:00:00
11:11 AM,55.4,55.4,100,29.96,1.0,SE,8.1,-,N/A,,Overcast,140,2013-02-06 17:11:00
11:13 AM,57.2,57.2,100,29.96,1.2,SE,8.1,-,N/A,,Overcast,130,2013-02-06 17:13:00
11:19 AM,57.2,57.2,100,29.96,1.5,SE,9.2,-,N/A,,Overcast,140,2013-02-06 17:19:00
11:22 AM,57.2,57.2,100,29.96,1.8,SSE,9.2,-,N/A,,Overcast,150,2013-02-06 17:22:00
11:24 AM,57.2,57.2,100,29.96,2.0,SSE,9.2,-,N/A,,Overcast,150,2013-02-06 17:24:00
11:30 AM,57.2,57.2,100,29.96,3.0,SSE,10.4,-,N/A,,Overcast,150,2013-02-06 17:30:00
11:55 AM,57.4,57.4,100,29.94,6.0,SSE,10.4,-,N/A,,Overcast,160,2013-02-06 17:55:00
12:05 PM,57.2,57.2,100,29.93,7.0,SSE,11.5,-,N/A,,Overcast,150,2013-02-06 18:05:00
12:25 PM,57.2,57.2,100,29.93,7.0,SSE,8.1,-,N/A,,Overcast,160,2013-02-06 18:25:00
12:37 PM,57.2,57.2,100,29.92,7.0,SSE,11.5,-,N/A,,Overcast,150,2013-02-06 18:37:00
12:46 PM,57.2,57.2,100,29.91,7.0,SSE,12.7,-,N/A,,Overcast,160,2013-02-06 18:46:00
12:55 PM,58.3,58.3,100,29.91,8.0,SSE,11.5,-,N/A,,Overcast,160,2013-02-06 18:55:00
1:01 PM,59.0,59.0,100,29.91,8.0,SSE,11.5,-,N/A,,Overcast,160,2013-02-06 19:01:00
1:32 PM,59.0,59.0,100,29.88,10.0,SSE,12.7,-,N/A,,Overcast,160,2013-02-06 19:32:00
1:41 PM,60.8,60.8,100,29.87,10.0,SSE,12.7,-,N/A,,Overcast,150,2013-02-06 19:41:00
1:42 PM,60.8,60.8,100,29.87,10.0,SSE,12.7,-,N/A,,Overcast,150,2013-02-06 19:42:00
1:44 PM,60.8,60.8,100,29.87,10.0,SSE,11.5,-,N/A,,Mostly Cloudy,150,2013-02-06 19:44:00
1:46 PM,62.6,59.0,88,29.86,10.0,SE,11.5,-,N/A,,Overcast,140,2013-02-06 19:46:00
1:49 PM,62.6,59.0,88,29.86,10.0,SE,11.5,-,N/A,,Overcast,140,2013-02-06 19:49:00
1:50 PM,62.6,59.0,88,29.86,10.0,SE,11.5,-,N/A,,Overcast,140,2013-02-06 19:50:00
1:51 PM,62.6,59.0,88,29.86,10.0,SE,11.5,-,N/A,,Overcast,140,2013-02-06 19:51:00
1:55 PM,62.2,57.7,85,29.86,10.0,SE,12.7,-,N/A,,Overcast,140,2013-02-06 19:55:00
2:18 PM,64.4,57.2,77,29.85,10.0,SSE,13.8,-,N/A,,Overcast,150,2013-02-06 20:18:00
2:30 PM,64.4,57.2,77,29.84,10.0,SSE,13.8,-,N/A,,Overcast,160,2013-02-06 20:30:00
2:31 PM,64.4,57.2,77,29.84,10.0,SSE,15.0,-,N/A,,Overcast,160,2013-02-06 20:31:00
2:35 PM,64.4,57.2,77,29.84,10.0,SSE,9.2,-,N/A,,Overcast,150,2013-02-06 20:35:00
2:55 PM,64.6,57.7,78,29.83,10.0,SE,12.7,-,N/A,,Overcast,140,2013-02-06 20:55:00
3:55 PM,68.0,57.6,69,29.79,10.0,SE,13.8,-,N/A,,Partly Cloudy,140,2013-02-06 21:55:00
4:55 PM,68.2,55.9,65,29.78,10.0,SE,15.0,-,N/A,,Mostly Cloudy,130,2013-02-06 22:55:00
5:55 PM,66.7,55.0,66,29.78,10.0,SE,11.5,-,N/A,,Mostly Cloudy,140,2013-02-06 23:55:00
6:52 PM,59.0,57.2,94,29.80,8.0,ESE,16.1,-,N/A,,Mostly Cloudy,120,2013-02-07 00:52:00
6:55 PM,59.7,57.7,93,29.80,8.0,ESE,17.3,-,N/A,,Mostly Cloudy,120,2013-02-07 00:55:00
7:55 PM,58.3,56.5,94,29.82,10.0,SE,15.0,-,N/A,,Overcast,130,2013-02-07 01:55:00
8:55 PM,58.5,56.3,93,29.83,10.0,SE,17.3,25.3,N/A,,Overcast,140,2013-02-07 02:55:00
9:55 PM,58.3,56.3,93,29.84,10.0,SSE,16.1,-,N/A,,Overcast,150,2013-02-07 03:55:00
11:55 PM,58.8,56.5,92,29.83,10.0,SSE,15.0,-,N/A,,Overcast,150,2013-02-07 05:55:00